Regional Weather Roundup
Issued by NWS

Home | Current Version | Previous Version | Text Only | Print | Product List | Glossary Off
Versions: 1 2 3 4 5 6 7 8 9 10 11 12 13 14 15 16 17 18 19 20 21 22 23 24 25 26 27 28 29 30 31 32 33 34 35 36 37 38 39 40 41 42 43 44 45 46 47 48 49 50

000
ASUS45 KSLC 030510
RWRUT

UTAH REGIONAL WEATHER ROUNDUP
NATIONAL WEATHER SERVICE SALT LAKE CITY UT
1000 PM MST MON MAR 02 2015

UTZ001>011-023>025-030600-

NORTHERN UTAH

CITY           SKY/WX    TMP DP  RH WIND       PRES   REMARKS
BRIGHAM CITY   CLOUDY    32  31  95 W3        29.77R
HILL AFB       MOCLDY    30  30 100 S3        29.75R FOG
LOGAN          CLOUDY    32  30  92 W10       29.73R WCI  24
OGDEN          CLOUDY    31  31 100 S6        29.75R WCI  25
PROVO AIRPORT  CLOUDY    37  30  75 NW14      29.77R WCI  29
SALT LAKE CITY CLOUDY    35  33  92 CALM      29.78R
VERNAL         MOCLDY    32  31  96 S7        29.68R WCI  26
WENDOVER         N/A     34  30  86 W8        29.78R WCI  27
HEBER CITY     FLURRIES  32  28  86 SW18G24   29.72R WCI  20
WEST JORDAN    CLOUDY    34  34 100 E5        29.78R WCI  30

$$

UTZ012>022-026-027-030600-

SOUTHERN/CENTRAL UTAH

CITY           SKY/WX    TMP DP  RH WIND       PRES   REMARKS
BLANDING         N/A     32  31  96 S9        29.97S WCI  24
BRYCE CANYON   FOG       25  23  92 SE13      29.87R VSB 3/4 WCI  14
CEDAR CITY       N/A     29  26  89 SW12      29.87R WCI  19
DELTA          CLOUDY    32  32 100 S6        29.82R WCI  26
HANKSVILLE       N/A     41  30  65 SW8G16    29.83R
MILFORD          N/A     33  28  81 S20       29.85R WCI  21
MOAB/CYNLANDS    N/A     39  31  72 SW13      29.78R WCI  31
PRICE          CLOUDY    34  29  82 E10       29.73R WCI  26
ST GEORGE      MOCLDY    41  36  81 SE10      29.95R
KANAB          MOCLDY    32  32 100 S5        29.97R WCI  27

$$

REGIONAL REPORTS     COLORADO/ARIZONA

CITY           SKY/WX    TMP DP  RH WIND       PRES   REMARKS
CRAIG, CO        N/A     36  27  69 SW14G23   29.64S WCI  27
GRAND JUNCTION MOCLDY    37  31  78 CALM      29.77R
RIFLE          LGT RAIN  35  32  88 W18G30    29.76R FOG     WCI  24
MONTROSE       MOCLDY    38  25  59 SW18G28   29.86R WCI  28
CORTEZ           N/A     35  29  78 S13       29.93R WCI  26
PAGE, AZ         N/A     41  28  60 S3        29.91R
GRAND CANYON   CLOUDY    28  28 100 SW8       29.95R WCI  20
KINGMAN          N/A     38  33  82 CALM      29.95R
FLAGSTAFF      LGT SNOW  29  27  92 W8        29.95S FOG     WCI  21

$$

REGIONAL REPORTS    NEVADA/IDAHO/WYOMING

CITY           SKY/WX    TMP DP  RH WIND       PRES   REMARKS
LAS VEGAS, NV    N/A     49  35  58 S8        29.88R
ELY              N/A     17  17 100 S5        29.83R WCI  10
ELKO           CLOUDY    31  24  75 W6        29.79R WCI  25
POCATELLO, ID    N/A     34  20  56 SW14      29.69R WCI  25
BURLEY           N/A     34  19  54 SW14      29.70R WCI  25
EVANSTON, WY   LGT SNOW  27  25  92 W17       29.66R FOG     WCI  14
ROCK SPRINGS   LGT SNOW  29  28  96 W13       29.62R FOG     WCI  19
KEMMERER       FLURRIES  27  27 100 W17       29.61R WCI  14

$$


USA.gov is the U.S. government's official web portal to all federal, state and local government web resources and services.